Time,TemperatureF,DewpointF,PressureIn,WindDirection,WindDirectionDegrees,WindSpeedMPH,WindSpeedGustMPH,Humidity,HourlyPrecipIn,Conditions,Clouds,dailyrainin,SoftwareType,DateUTC
2013-01-18 00:00:00,21.8,16.3,30.48,SSW,207,0.0,1.0,79,0.00,,SKC,0.00,VWS V14.01,2013-01-18 05:00:00,
2013-01-18 00:01:00,21.8,16.3,30.48,SSW,207,0.0,1.0,79,0.00,,SKC,0.00,VWS V14.01,2013-01-18 05:01:00,
2013-01-18 00:03:00,21.6,16.1,30.48,SSW,207,0.0,0.0,79,0.00,,SKC,0.00,VWS V14.01,2013-01-18 05:03:00,
2013-01-18 00:09:00,21.2,16.0,30.48,SSW,207,0.0,1.0,80,0.00,,SKC,0.00,VWS V14.01,2013-01-18 05:09:00,
2013-01-18 00:14:00,20.9,16.0,30.48,SSW,207,0.0,1.0,81,0.00,,SKC,0.00,VWS V14.01,2013-01-18 05:14:00,
2013-01-18 00:19:00,20.6,15.7,30.48,SSW,207,0.0,1.0,81,0.00,,SKC,0.00,VWS V14.01,2013-01-18 05:19:00,
2013-01-18 00:24:00,20.4,15.8,30.48,SSW,207,0.0,1.0,82,0.00,,SKC,0.00,VWS V14.01,2013-01-18 05:24:00,
2013-01-18 00:29:00,20.2,15.6,30.48,SSW,207,0.0,1.0,82,0.00,,SKC,0.00,VWS V14.01,2013-01-18 05:29:00,
2013-01-18 00:34:00,20.0,15.7,30.48,SSW,207,0.0,0.0,83,0.00,,SKC,0.00,VWS V14.01,2013-01-18 05:34:00,
2013-01-18 00:39:00,20.0,15.7,30.48,SSW,207,0.0,0.0,83,0.00,,SKC,0.00,VWS V14.01,2013-01-18 05:39:00,
2013-01-18 00:44:00,19.8,15.8,30.48,SSW,207,0.0,0.0,84,0.00,,SKC,0.00,VWS V14.01,2013-01-18 05:44:00,
2013-01-18 00:49:00,19.7,15.7,30.49,SSW,207,0.0,0.0,84,0.00,,SKC,0.00,VWS V14.01,2013-01-18 05:49:00,
2013-01-18 00:54:00,19.5,15.5,30.49,SSW,207,0.0,1.0,84,0.00,,SKC,0.00,VWS V14.01,2013-01-18 05:54:00,
2013-01-18 00:59:00,19.4,15.6,30.49,SSW,207,0.0,1.0,85,0.00,,SKC,0.00,VWS V14.01,2013-01-18 05:59:00,
2013-01-18 01:04:00,19.2,15.4,30.50,SSW,207,0.0,0.0,85,0.00,,SKC,0.00,VWS V14.01,2013-01-18 06:04:00,
2013-01-18 01:09:00,19.0,15.5,30.50,SSW,207,0.0,0.0,86,0.00,,SKC,0.00,VWS V14.01,2013-01-18 06:09:00,
2013-01-18 01:15:00,18.8,15.3,30.50,SSW,207,0.0,0.0,86,0.00,,SKC,0.00,VWS V14.01,2013-01-18 06:15:00,
2013-01-18 01:20:00,18.7,15.5,30.50,SSW,207,0.0,1.0,87,0.00,,SKC,0.00,VWS V14.01,2013-01-18 06:20:00,
2013-01-18 01:25:00,18.6,15.4,30.50,SSW,207,0.0,1.0,87,0.00,,SKC,0.00,VWS V14.01,2013-01-18 06:25:00,
2013-01-18 01:30:00,18.4,15.2,30.50,SSW,207,0.0,1.0,87,0.00,,SKC,0.00,VWS V14.01,2013-01-18 06:30:00,
2013-01-18 01:35:00,18.4,15.2,30.50,SSW,207,0.0,1.0,87,0.00,,SKC,0.00,VWS V14.01,2013-01-18 06:35:00,
2013-01-18 01:40:00,18.4,15.2,30.50,SSW,207,0.0,1.0,87,0.00,,SKC,0.00,VWS V14.01,2013-01-18 06:40:00,
2013-01-18 01:45:00,18.1,14.9,30.50,SSW,207,0.0,1.0,87,0.00,,SKC,0.00,VWS V14.01,2013-01-18 06:45:00,
2013-01-18 01:50:00,17.9,14.7,30.50,SSW,207,0.0,1.0,87,0.00,,SKC,0.00,VWS V14.01,2013-01-18 06:50:00,
2013-01-18 01:55:00,17.9,14.9,30.50,SSW,207,0.0,1.0,88,0.00,,SKC,0.00,VWS V14.01,2013-01-18 06:55:00,
2013-01-18 02:00:00,17.7,14.5,30.50,SSW,207,0.0,1.0,87,0.00,,SKC,0.00,VWS V14.01,2013-01-18 07:00:00,
2013-01-18 02:05:00,17.4,14.2,30.50,SSW,207,0.0,0.0,87,0.00,,SKC,0.00,VWS V14.01,2013-01-18 07:05:00,
2013-01-18 02:10:00,17.1,14.2,30.50,SSW,207,0.0,0.0,88,0.00,,SKC,0.00,VWS V14.01,2013-01-18 07:10:00,
2013-01-18 02:15:00,17.1,14.4,30.51,SSW,207,0.0,0.0,89,0.00,,SKC,0.00,VWS V14.01,2013-01-18 07:15:00,
2013-01-18 02:20:00,16.9,14.0,30.51,SSW,207,0.0,0.0,88,0.00,,SKC,0.00,VWS V14.01,2013-01-18 07:20:00,
2013-01-18 02:25:00,16.7,14.0,30.51,SSW,207,0.0,0.0,89,0.00,,SKC,0.00,VWS V14.01,2013-01-18 07:25:00,
2013-01-18 02:30:00,16.9,14.7,30.52,SSW,207,0.0,0.0,91,0.00,,SKC,0.00,VWS V14.01,2013-01-18 07:30:00,
2013-01-18 02:35:00,17.0,14.8,30.52,SSW,207,0.0,0.0,91,0.00,,SKC,0.00,VWS V14.01,2013-01-18 07:35:00,
2013-01-18 02:40:00,17.1,14.9,30.52,SSW,207,0.0,0.0,91,0.00,,SKC,0.00,VWS V14.01,2013-01-18 07:40:00,
2013-01-18 02:46:00,17.1,14.7,30.53,SSW,207,0.0,0.0,90,0.00,,SKC,0.00,VWS V14.01,2013-01-18 07:46:00,
2013-01-18 02:51:00,17.0,14.3,30.53,SSW,207,0.0,0.0,89,0.00,,SKC,0.00,VWS V14.01,2013-01-18 07:51:00,
2013-01-18 02:56:00,16.9,14.5,30.53,SSW,207,0.0,0.0,90,0.00,,SKC,0.00,VWS V14.01,2013-01-18 07:56:00,
2013-01-18 03:01:00,17.2,15.0,30.53,SSW,207,0.0,0.0,91,0.00,,SKC,0.00,VWS V14.01,2013-01-18 08:01:00,
2013-01-18 03:06:00,17.4,15.0,30.53,SSW,205,0.0,0.0,90,0.00,,SKC,0.00,VWS V14.01,2013-01-18 08:06:00,
2013-01-18 03:11:00,17.4,15.0,30.53,SSW,205,0.0,0.0,90,0.00,,SKC,0.00,VWS V14.01,2013-01-18 08:11:00,
2013-01-18 03:16:00,17.3,14.9,30.53,SSW,205,0.0,0.0,90,0.00,,SKC,0.00,VWS V14.01,2013-01-18 08:16:00,
2013-01-18 03:21:00,17.4,15.0,30.53,SSW,205,0.0,0.0,90,0.00,,SKC,0.00,VWS V14.01,2013-01-18 08:21:00,
2013-01-18 03:26:00,17.6,15.2,30.53,SSW,205,0.0,0.0,90,0.00,,SKC,0.00,VWS V14.01,2013-01-18 08:26:00,
2013-01-18 03:31:00,17.5,15.1,30.54,SSW,205,0.0,0.0,90,0.00,,SKC,0.00,VWS V14.01,2013-01-18 08:31:00,
2013-01-18 03:36:00,17.4,15.0,30.54,SSW,205,0.0,0.0,90,0.00,,SKC,0.00,VWS V14.01,2013-01-18 08:36:00,
2013-01-18 03:41:00,17.3,14.6,30.54,SSW,205,0.0,0.0,89,0.00,,SKC,0.00,VWS V14.01,2013-01-18 08:41:00,
2013-01-18 03:46:00,17.2,14.8,30.54,SSW,205,0.0,0.0,90,0.00,,SKC,0.00,VWS V14.01,2013-01-18 08:46:00,
2013-01-18 03:51:00,17.2,14.8,30.54,SSW,205,0.0,0.0,90,0.00,,SKC,0.00,VWS V14.01,2013-01-18 08:51:00,
2013-01-18 03:57:00,17.2,14.8,30.54,SSW,205,0.0,0.0,90,0.00,,SKC,0.00,VWS V14.01,2013-01-18 08:57:00,
2013-01-18 04:02:00,17.3,14.9,30.53,SSW,205,0.0,0.0,90,0.00,,SKC,0.00,VWS V14.01,2013-01-18 09:02:00,
2013-01-18 04:07:00,17.4,15.0,30.53,SSW,205,0.0,0.0,90,0.00,,SKC,0.00,VWS V14.01,2013-01-18 09:07:00,
2013-01-18 04:12:00,17.3,14.9,30.53,SSW,205,0.0,0.0,90,0.00,,SKC,0.00,VWS V14.01,2013-01-18 09:12:00,
2013-01-18 04:17:00,17.4,15.0,30.53,SSW,205,0.0,0.0,90,0.00,,SKC,0.00,VWS V14.01,2013-01-18 09:17:00,
2013-01-18 04:22:00,17.8,15.1,30.53,SE,144,0.0,0.0,89,0.00,,SKC,0.00,VWS V14.01,2013-01-18 09:22:00,
2013-01-18 04:27:00,18.1,15.1,30.53,SE,143,0.0,0.0,88,0.00,,SKC,0.00,VWS V14.01,2013-01-18 09:27:00,
2013-01-18 04:32:00,18.1,15.1,30.52,SE,146,0.0,0.0,88,0.00,,SKC,0.00,VWS V14.01,2013-01-18 09:32:00,
2013-01-18 04:37:00,18.1,15.1,30.52,SSE,147,0.0,0.0,88,0.00,,SKC,0.00,VWS V14.01,2013-01-18 09:37:00,
2013-01-18 04:42:00,17.9,14.9,30.52,SE,146,0.0,0.0,88,0.00,,SKC,0.00,VWS V14.01,2013-01-18 09:42:00,
2013-01-18 04:47:00,17.9,14.9,30.52,SSE,147,0.0,0.0,88,0.00,,SKC,0.00,VWS V14.01,2013-01-18 09:47:00,
2013-01-18 04:53:00,17.8,14.9,30.52,SSE,147,0.0,0.0,88,0.00,,SKC,0.00,VWS V14.01,2013-01-18 09:53:00,
2013-01-18 04:58:00,17.8,15.1,30.52,SE,146,0.0,0.0,89,0.00,,SKC,0.00,VWS V14.01,2013-01-18 09:58:00,
2013-01-18 05:03:00,17.6,14.9,30.52,SE,146,0.0,0.0,89,0.00,,SKC,0.00,VWS V14.01,2013-01-18 10:03:00,
2013-01-18 05:08:00,17.5,14.8,30.52,SSE,147,0.0,0.0,89,0.00,,SKC,0.00,VWS V14.01,2013-01-18 10:08:00,
2013-01-18 05:13:00,17.4,14.7,30.52,SSE,147,0.0,0.0,89,0.00,,SKC,0.00,VWS V14.01,2013-01-18 10:13:00,
2013-01-18 05:18:00,17.3,14.9,30.52,SE,146,0.0,0.0,90,0.00,,SKC,0.00,VWS V14.01,2013-01-18 10:18:00,
2013-01-18 05:23:00,17.4,15.0,30.52,SE,146,0.0,0.0,90,0.00,,SKC,0.00,VWS V14.01,2013-01-18 10:23:00,
2013-01-18 05:28:00,17.8,15.6,30.52,SSW,204,0.0,0.0,91,0.00,,SKC,0.00,VWS V14.01,2013-01-18 10:28:00,
2013-01-18 05:33:00,18.4,16.0,30.53,SSW,203,0.0,0.0,90,0.00,,SKC,0.00,VWS V14.01,2013-01-18 10:33:00,
2013-01-18 05:38:00,18.8,16.4,30.53,SSW,203,0.0,0.0,90,0.00,,SKC,0.00,VWS V14.01,2013-01-18 10:38:00,
2013-01-18 05:43:00,18.9,16.2,30.53,SSW,203,0.0,0.0,89,0.00,,SKC,0.00,VWS V14.01,2013-01-18 10:43:00,
2013-01-18 05:48:00,19.0,16.6,30.53,SSW,203,0.0,0.0,90,0.00,,SKC,0.00,VWS V14.01,2013-01-18 10:48:00,
2013-01-18 05:54:00,18.8,16.4,30.53,SSW,204,0.0,0.0,90,0.00,,SKC,0.00,VWS V14.01,2013-01-18 10:54:00,
2013-01-18 05:58:00,18.9,16.5,30.53,SSW,203,0.0,0.0,90,0.00,,SKC,0.00,VWS V14.01,2013-01-18 10:58:00,
2013-01-18 06:04:00,19.0,16.6,30.53,SSW,203,0.0,0.0,90,0.00,,SKC,0.00,VWS V14.01,2013-01-18 11:04:00,
2013-01-18 06:09:00,19.0,16.3,30.53,SSW,203,0.0,0.0,89,0.00,,SKC,0.00,VWS V14.01,2013-01-18 11:09:00,
2013-01-18 06:14:00,19.0,16.3,30.53,SSW,203,0.0,0.0,89,0.00,,SKC,0.00,VWS V14.01,2013-01-18 11:14:00,
2013-01-18 06:19:00,19.0,16.3,30.53,SSW,200,0.0,0.0,89,0.00,,SKC,0.00,VWS V14.01,2013-01-18 11:19:00,
2013-01-18 06:24:00,19.0,16.6,30.53,SSW,200,0.0,0.0,90,0.00,,SKC,0.00,VWS V14.01,2013-01-18 11:24:00,
2013-01-18 06:29:00,19.1,16.7,30.53,SSW,200,0.0,0.0,90,0.00,,SKC,0.00,VWS V14.01,2013-01-18 11:29:00,
2013-01-18 06:34:00,19.1,16.4,30.54,SSW,200,0.0,0.0,89,0.00,,SKC,0.00,VWS V14.01,2013-01-18 11:34:00,
2013-01-18 06:39:00,19.2,16.5,30.54,SSW,200,0.0,0.0,89,0.00,,SKC,0.00,VWS V14.01,2013-01-18 11:39:00,
2013-01-18 06:44:00,19.1,16.4,30.54,SSW,200,0.0,0.0,89,0.00,,SKC,0.00,VWS V14.01,2013-01-18 11:44:00,
2013-01-18 06:49:00,18.9,16.2,30.54,SSW,200,0.0,0.0,89,0.00,,SKC,0.00,VWS V14.01,2013-01-18 11:49:00,
2013-01-18 06:54:00,18.9,16.5,30.54,SSW,200,0.0,0.0,90,0.00,,SKC,0.00,VWS V14.01,2013-01-18 11:54:00,
2013-01-18 06:59:00,19.0,16.3,30.54,SSW,199,0.0,0.0,89,0.00,,SKC,0.00,VWS V14.01,2013-01-18 11:59:00,
2013-01-18 07:04:00,19.2,16.5,30.54,SSW,200,0.0,0.0,89,0.00,,SKC,0.00,VWS V14.01,2013-01-18 12:04:00,
2013-01-18 07:09:00,19.0,16.3,30.54,SSW,200,0.0,0.0,89,0.00,,SKC,0.00,VWS V14.01,2013-01-18 12:09:00,
2013-01-18 07:15:00,18.9,16.2,30.54,SSW,200,0.0,0.0,89,0.00,,SKC,0.00,VWS V14.01,2013-01-18 12:15:00,
2013-01-18 07:20:00,18.9,16.2,30.54,SSW,200,0.0,0.0,89,0.00,,SKC,0.00,VWS V14.01,2013-01-18 12:20:00,
2013-01-18 07:25:00,19.0,16.3,30.54,South,184,0.0,0.0,89,0.00,,SKC,0.00,VWS V14.01,2013-01-18 12:25:00,
2013-01-18 07:30:00,19.3,17.4,30.54,SE,145,0.0,0.0,92,0.00,,SKC,0.00,VWS V14.01,2013-01-18 12:30:00,
2013-01-18 07:35:00,19.4,16.7,30.54,SSE,152,0.0,0.0,89,0.00,,SKC,0.00,VWS V14.01,2013-01-18 12:35:00,
2013-01-18 07:40:00,19.1,16.1,30.54,SSE,148,0.0,1.0,88,0.00,,SKC,0.00,VWS V14.01,2013-01-18 12:40:00,
2013-01-18 07:45:00,19.0,16.3,30.53,SSE,153,0.0,1.0,89,0.00,,SKC,0.00,VWS V14.01,2013-01-18 12:45:00,
2013-01-18 07:50:00,18.9,16.2,30.53,SSE,153,0.0,1.0,89,0.00,,SKC,0.00,VWS V14.01,2013-01-18 12:50:00,
2013-01-18 07:55:00,18.9,16.2,30.53,SSE,148,0.0,1.0,89,0.00,,SKC,0.00,VWS V14.01,2013-01-18 12:55:00,
2013-01-18 08:00:00,18.6,15.6,30.54,SSE,148,0.0,1.0,88,0.00,,SKC,0.00,VWS V14.01,2013-01-18 13:00:00,
2013-01-18 08:05:00,18.4,15.7,30.54,SSE,148,0.0,0.0,89,0.00,,SKC,0.00,VWS V14.01,2013-01-18 13:05:00,
2013-01-18 08:10:00,18.3,15.6,30.54,SSE,148,0.0,0.0,89,0.00,,SKC,0.00,VWS V14.01,2013-01-18 13:10:00,
2013-01-18 08:15:00,18.2,15.5,30.54,SSE,148,0.0,0.0,89,0.00,,SKC,0.00,VWS V14.01,2013-01-18 13:15:00,
2013-01-18 08:20:00,18.2,15.8,30.54,SSE,148,0.0,0.0,90,0.00,,SKC,0.00,VWS V14.01,2013-01-18 13:20:00,
2013-01-18 08:25:00,18.6,16.2,30.54,SSW,204,0.0,0.0,90,0.00,,SKC,0.00,VWS V14.01,2013-01-18 13:25:00,
2013-01-18 08:30:00,18.9,16.5,30.54,SSW,204,0.0,0.0,90,0.00,,SKC,0.00,VWS V14.01,2013-01-18 13:30:00,
2013-01-18 08:35:00,19.3,16.6,30.54,SSW,204,0.0,0.0,89,0.00,,SKC,0.00,VWS V14.01,2013-01-18 13:35:00,
2013-01-18 08:40:00,19.6,16.9,30.54,SSW,204,0.0,0.0,89,0.00,,SKC,0.00,VWS V14.01,2013-01-18 13:40:00,
2013-01-18 08:45:00,20.0,17.0,30.54,SE,146,0.0,0.0,88,0.00,,SKC,0.00,VWS V14.01,2013-01-18 13:45:00,
2013-01-18 08:50:00,20.4,17.2,30.54,SSE,147,0.0,0.0,87,0.00,,SKC,0.00,VWS V14.01,2013-01-18 13:50:00,
2013-01-18 08:55:00,20.7,17.2,30.54,SSW,210,0.0,0.0,86,0.00,,SKC,0.00,VWS V14.01,2013-01-18 13:55:00,
2013-01-18 09:00:00,21.1,17.3,30.54,SW,219,0.0,0.0,85,0.00,,SKC,0.00,VWS V14.01,2013-01-18 14:00:00,
2013-01-18 09:06:00,21.7,17.6,30.54,SE,139,1.0,2.0,84,0.00,,SKC,0.00,VWS V14.01,2013-01-18 14:06:00,
2013-01-18 09:11:00,23.6,19.5,30.54,South,176,0.0,2.0,84,0.00,,SKC,0.00,VWS V14.01,2013-01-18 14:11:00,
2013-01-18 09:16:00,23.9,16.2,30.55,SW,231,2.0,4.0,72,0.00,,SKC,0.00,VWS V14.01,2013-01-18 14:16:00,
2013-01-18 09:21:00,24.2,15.5,30.55,WSW,250,3.0,6.0,69,0.00,,SKC,0.00,VWS V14.01,2013-01-18 14:21:00,
2013-01-18 09:26:00,24.7,16.0,30.55,SSW,203,3.0,6.0,69,0.00,,SKC,0.00,VWS V14.01,2013-01-18 14:26:00,
2013-01-18 09:31:00,25.0,15.9,30.55,South,190,4.0,4.0,68,0.00,,SKC,0.00,VWS V14.01,2013-01-18 14:31:00,
2013-01-18 09:36:00,25.3,15.2,30.55,South,184,1.0,4.0,65,0.00,,SKC,0.00,VWS V14.01,2013-01-18 14:36:00,
2013-01-18 09:41:00,25.6,15.1,30.55,SSW,211,1.0,7.0,64,0.00,,SKC,0.00,VWS V14.01,2013-01-18 14:41:00,
2013-01-18 09:46:00,25.8,15.0,30.55,SSW,203,0.0,7.0,63,0.00,,SKC,0.00,VWS V14.01,2013-01-18 14:46:00,
2013-01-18 09:51:00,26.3,15.1,30.55,South,170,1.0,7.0,62,0.00,,SKC,0.00,VWS V14.01,2013-01-18 14:51:00,
2013-01-18 09:56:00,26.6,15.0,30.55,SE,144,0.0,7.0,61,0.00,,SKC,0.00,VWS V14.01,2013-01-18 14:56:00,
2013-01-18 10:01:00,26.9,14.5,30.55,SSW,192,3.0,7.0,59,0.00,,SKC,0.00,VWS V14.01,2013-01-18 15:01:00,
2013-01-18 10:07:00,27.2,14.8,30.55,South,191,1.0,9.0,59,0.00,,SKC,0.00,VWS V14.01,2013-01-18 15:07:00,
2013-01-18 10:12:00,27.9,15.1,30.55,SSE,168,0.0,9.0,58,0.00,,SKC,0.00,VWS V14.01,2013-01-18 15:12:00,
2013-01-18 10:17:00,28.2,14.5,30.55,South,191,2.0,9.0,56,0.00,,SKC,0.00,VWS V14.01,2013-01-18 15:17:00,
2013-01-18 10:22:00,28.5,15.2,30.55,South,177,3.0,9.0,57,0.00,,SKC,0.00,VWS V14.01,2013-01-18 15:22:00,
2013-01-18 10:27:00,28.8,14.7,30.55,South,180,2.0,10.0,55,0.00,,SKC,0.00,VWS V14.01,2013-01-18 15:27:00,
2013-01-18 10:32:00,29.3,15.1,30.55,SSW,196,0.0,5.0,55,0.00,,SKC,0.00,VWS V14.01,2013-01-18 15:32:00,
2013-01-18 10:37:00,29.4,15.2,30.55,SE,125,3.0,9.0,55,0.00,,SKC,0.00,VWS V14.01,2013-01-18 15:37:00,
2013-01-18 10:42:00,29.8,15.6,30.55,SSE,149,2.0,9.0,55,0.00,,SKC,0.00,VWS V14.01,2013-01-18 15:42:00,
2013-01-18 10:47:00,30.0,15.8,30.55,South,187,4.0,9.0,55,0.00,,SKC,0.00,VWS V14.01,2013-01-18 15:47:00,
2013-01-18 10:52:00,30.1,15.9,30.55,SW,225,4.0,9.0,55,0.00,,SKC,0.00,VWS V14.01,2013-01-18 15:52:00,
2013-01-18 10:57:00,30.4,16.6,30.55,South,176,6.0,11.0,56,0.00,,SKC,0.00,VWS V14.01,2013-01-18 15:57:00,
2013-01-18 11:02:00,30.6,15.9,30.53,SSW,202,3.0,7.0,54,0.00,,SKC,0.00,VWS V14.01,2013-01-18 16:02:00,
2013-01-18 11:08:00,30.7,16.5,30.53,SSW,212,4.0,9.0,55,0.00,,SKC,0.00,VWS V14.01,2013-01-18 16:08:00,
2013-01-18 11:13:00,31.2,16.5,30.53,SW,226,3.0,13.0,54,0.00,,SKC,0.00,VWS V14.01,2013-01-18 16:13:00,
2013-01-18 11:18:00,31.5,16.8,30.53,WSW,243,5.0,13.0,54,0.00,,SKC,0.00,VWS V14.01,2013-01-18 16:18:00,
2013-01-18 11:23:00,31.3,16.2,30.53,SSW,213,4.0,13.0,53,0.00,,SKC,0.00,VWS V14.01,2013-01-18 16:23:00,
2013-01-18 11:28:00,31.3,17.0,30.53,SSW,205,2.0,13.0,55,0.00,,SKC,0.00,VWS V14.01,2013-01-18 16:28:00,
2013-01-18 11:33:00,31.5,16.4,30.53,SSW,195,11.0,16.0,53,0.00,,SKC,0.00,VWS V14.01,2013-01-18 16:33:00,
2013-01-18 11:38:00,31.6,16.5,30.53,South,176,2.0,16.0,53,0.00,,SKC,0.00,VWS V14.01,2013-01-18 16:38:00,
2013-01-18 11:43:00,31.8,16.2,30.53,SE,146,1.0,16.0,52,0.00,,SKC,0.00,VWS V14.01,2013-01-18 16:43:00,
2013-01-18 11:48:00,32.1,16.9,30.52,South,191,2.0,16.0,53,0.00,,SKC,0.00,VWS V14.01,2013-01-18 16:48:00,
2013-01-18 11:53:00,32.1,16.5,30.52,SSE,165,3.0,16.0,52,0.00,,SKC,0.00,VWS V14.01,2013-01-18 16:53:00,
2013-01-18 11:58:00,32.4,16.8,30.52,SSE,150,2.0,16.0,52,0.00,,SKC,0.00,VWS V14.01,2013-01-18 16:58:00,
2013-01-18 12:03:00,32.9,16.8,30.50,SW,222,2.0,3.0,51,0.00,,SKC,0.00,VWS V14.01,2013-01-18 17:03:00,
2013-01-18 12:08:00,33.2,16.6,30.50,South,186,2.0,9.0,50,0.00,,SKC,0.00,VWS V14.01,2013-01-18 17:08:00,
2013-01-18 12:13:00,33.7,17.5,30.50,SSE,149,0.0,12.0,51,0.00,,SKC,0.00,VWS V14.01,2013-01-18 17:13:00,
2013-01-18 12:18:00,34.1,17.0,30.49,SW,216,10.0,12.0,49,0.00,,SKC,0.00,VWS V14.01,2013-01-18 17:18:00,
2013-01-18 12:23:00,33.7,16.1,30.49,SSW,203,4.0,12.0,48,0.00,,SKC,0.00,VWS V14.01,2013-01-18 17:23:00,
2013-01-18 12:28:00,33.7,16.1,30.49,SSW,200,5.0,15.0,48,0.00,,SKC,0.00,VWS V14.01,2013-01-18 17:28:00,
2013-01-18 12:33:00,34.1,15.5,30.47,SE,146,5.0,15.0,46,0.00,,SKC,0.00,VWS V14.01,2013-01-18 17:33:00,
2013-01-18 12:38:00,34.3,15.7,30.47,SSE,160,3.0,15.0,46,0.00,,SKC,0.00,VWS V14.01,2013-01-18 17:38:00,
2013-01-18 12:43:00,34.7,15.6,30.47,SSW,193,9.0,15.0,45,0.00,,SKC,0.00,VWS V14.01,2013-01-18 17:43:00,
2013-01-18 12:49:00,34.4,15.3,30.45,SSW,192,5.0,15.0,45,0.00,,SKC,0.00,VWS V14.01,2013-01-18 17:49:00,
2013-01-18 12:54:00,35.0,16.3,30.45,SSW,205,4.0,15.0,46,0.00,,SKC,0.00,VWS V14.01,2013-01-18 17:54:00,
2013-01-18 12:59:00,34.9,15.2,30.45,South,178,5.0,17.0,44,0.00,,SKC,0.00,VWS V14.01,2013-01-18 17:59:00,
2013-01-18 13:04:00,35.2,15.0,30.45,SE,139,1.0,11.0,43,0.00,,SKC,0.00,VWS V14.01,2013-01-18 18:04:00,
2013-01-18 13:09:00,35.5,15.8,30.45,SSE,164,0.0,11.0,44,0.00,,SKC,0.00,VWS V14.01,2013-01-18 18:09:00,
2013-01-18 13:14:00,36.0,16.7,30.45,SSE,157,0.0,11.0,45,0.00,,SKC,0.00,VWS V14.01,2013-01-18 18:14:00,
2013-01-18 13:19:00,36.3,14.9,30.44,SSE,158,5.0,11.0,41,0.00,,SKC,0.00,VWS V14.01,2013-01-18 18:19:00,
2013-01-18 13:24:00,35.9,15.6,30.44,South,171,5.0,12.0,43,0.00,,SKC,0.00,VWS V14.01,2013-01-18 18:24:00,
2013-01-18 13:29:00,36.2,15.3,30.44,South,174,3.0,12.0,42,0.00,,SKC,0.00,VWS V14.01,2013-01-18 18:29:00,
2013-01-18 13:34:00,36.8,16.4,30.42,SSW,192,4.0,9.0,43,0.00,,SKC,0.00,VWS V14.01,2013-01-18 18:34:00,
2013-01-18 13:39:00,37.0,14.9,30.42,SSE,165,3.0,14.0,40,0.00,,SKC,0.00,VWS V14.01,2013-01-18 18:39:00,
2013-01-18 13:44:00,37.2,14.5,30.42,South,186,6.0,14.0,39,0.00,,SKC,0.00,VWS V14.01,2013-01-18 18:44:00,
2013-01-18 13:49:00,37.0,14.9,30.41,SE,134,1.0,14.0,40,0.00,,SKC,0.00,VWS V14.01,2013-01-18 18:49:00,
2013-01-18 13:54:00,37.2,13.3,30.41,SW,224,4.0,15.0,37,0.00,,SKC,0.00,VWS V14.01,2013-01-18 18:54:00,
2013-01-18 13:59:00,37.3,14.0,30.41,ESE,123,0.0,15.0,38,0.00,,SKC,0.00,VWS V14.01,2013-01-18 18:59:00,
2013-01-18 14:04:00,38.0,15.3,30.40,SSE,167,7.0,11.0,39,0.00,,SKC,0.00,VWS V14.01,2013-01-18 19:04:00,
2013-01-18 14:09:00,37.8,14.5,30.40,SSE,163,1.0,11.0,38,0.00,,SKC,0.00,VWS V14.01,2013-01-18 19:09:00,
2013-01-18 14:14:00,37.8,13.9,30.39,SE,145,9.0,15.0,37,0.00,,SKC,0.00,VWS V14.01,2013-01-18 19:14:00,
2013-01-18 14:19:00,38.0,12.8,30.39,South,188,2.0,16.0,35,0.00,,SKC,0.00,VWS V14.01,2013-01-18 19:19:00,
2013-01-18 14:24:00,38.5,13.9,30.39,South,178,3.0,16.0,36,0.00,,SKC,0.00,VWS V14.01,2013-01-18 19:24:00,
2013-01-18 14:29:00,38.6,13.3,30.38,SSE,153,6.0,16.0,35,0.00,,SKC,0.00,VWS V14.01,2013-01-18 19:29:00,
2013-01-18 14:34:00,38.6,12.7,30.38,South,182,10.0,10.0,34,0.00,,SKC,0.00,VWS V14.01,2013-01-18 19:34:00,
2013-01-18 14:40:00,38.9,12.9,30.38,SSW,198,3.0,12.0,34,0.00,,SKC,0.00,VWS V14.01,2013-01-18 19:40:00,
2013-01-18 14:45:00,38.9,12.9,30.37,SSW,210,15.0,15.0,34,0.00,,SKC,0.00,VWS V14.01,2013-01-18 19:45:00,
2013-01-18 14:50:00,38.9,13.6,30.37,South,170,1.0,15.0,35,0.00,,SKC,0.00,VWS V14.01,2013-01-18 19:50:00,
2013-01-18 14:55:00,38.8,12.9,30.37,South,178,4.0,15.0,34,0.00,,SKC,0.00,VWS V14.01,2013-01-18 19:55:00,
2013-01-18 15:00:00,38.9,13.6,30.37,South,177,5.0,15.0,35,0.00,,SKC,0.00,VWS V14.01,2013-01-18 20:00:00,
2013-01-18 15:05:00,38.9,13.6,30.37,South,188,0.0,11.0,35,0.00,,SKC,0.00,VWS V14.01,2013-01-18 20:05:00,
2013-01-18 15:10:00,39.3,13.9,30.37,SW,224,6.0,11.0,35,0.00,,SKC,0.00,VWS V14.01,2013-01-18 20:10:00,
2013-01-18 15:15:00,39.3,13.3,30.36,SSE,160,10.0,18.0,34,0.00,,SKC,0.00,VWS V14.01,2013-01-18 20:15:00,
2013-01-18 15:20:00,39.1,12.4,30.36,South,190,12.0,19.0,33,0.00,,SKC,0.00,VWS V14.01,2013-01-18 20:20:00,
2013-01-18 15:25:00,39.1,13.1,30.36,SSW,192,4.0,19.0,34,0.00,,SKC,0.00,VWS V14.01,2013-01-18 20:25:00,
2013-01-18 15:30:00,39.2,13.2,30.35,SE,141,4.0,23.0,34,0.00,,SKC,0.00,VWS V14.01,2013-01-18 20:30:00,
2013-01-18 15:35:00,39.2,13.9,30.35,SSW,193,1.0,12.0,35,0.00,,SKC,0.00,VWS V14.01,2013-01-18 20:35:00,
2013-01-18 15:40:00,39.5,14.1,30.35,South,182,10.0,12.0,35,0.00,,SKC,0.00,VWS V14.01,2013-01-18 20:40:00,
2013-01-18 15:45:00,39.6,14.2,30.34,SSE,154,10.0,18.0,35,0.00,,SKC,0.00,VWS V14.01,2013-01-18 20:45:00,
2013-01-18 15:50:00,39.6,14.2,30.34,SSW,193,3.0,18.0,35,0.00,,SKC,0.00,VWS V14.01,2013-01-18 20:50:00,
2013-01-18 15:55:00,39.8,14.4,30.34,SE,131,4.0,23.0,35,0.00,,SKC,0.00,VWS V14.01,2013-01-18 20:55:00,
2013-01-18 16:00:00,39.8,14.4,30.33,South,187,12.0,12.0,35,0.00,,SKC,0.00,VWS V14.01,2013-01-18 21:00:00,
2013-01-18 16:06:00,39.8,13.7,30.33,SSE,164,5.0,18.0,34,0.00,,SKC,0.00,VWS V14.01,2013-01-18 21:06:00,
2013-01-18 16:11:00,39.9,14.5,30.33,South,184,3.0,18.0,35,0.00,,SKC,0.00,VWS V14.01,2013-01-18 21:11:00,
2013-01-18 16:16:00,40.1,14.7,30.32,SW,235,2.0,18.0,35,0.00,,SKC,0.00,VWS V14.01,2013-01-18 21:16:00,
2013-01-18 16:21:00,40.1,14.0,30.32,South,184,3.0,18.0,34,0.00,,SKC,0.00,VWS V14.01,2013-01-18 21:21:00,
2013-01-18 16:26:00,40.1,14.0,30.32,South,176,3.0,23.0,34,0.00,,SKC,0.00,VWS V14.01,2013-01-18 21:26:00,
2013-01-18 16:31:00,40.1,14.0,30.32,SSW,207,1.0,9.0,34,0.00,,SKC,0.00,VWS V14.01,2013-01-18 21:31:00,
2013-01-18 16:36:00,40.1,14.7,30.32,SSW,193,9.0,23.0,35,0.00,,SKC,0.00,VWS V14.01,2013-01-18 21:36:00,
2013-01-18 16:41:00,40.1,14.0,30.32,South,179,5.0,23.0,34,0.00,,SKC,0.00,VWS V14.01,2013-01-18 21:41:00,
2013-01-18 16:46:00,40.1,14.7,30.31,SE,146,2.0,23.0,35,0.00,,SKC,0.00,VWS V14.01,2013-01-18 21:46:00,
2013-01-18 16:51:00,40.1,14.7,30.31,SSE,162,4.0,23.0,35,0.00,,SKC,0.00,VWS V14.01,2013-01-18 21:51:00,
2013-01-18 16:56:00,40.1,15.3,30.31,SE,139,1.0,23.0,36,0.00,,SKC,0.00,VWS V14.01,2013-01-18 21:56:00,
2013-01-18 17:01:00,39.9,15.8,30.30,SE,141,4.0,4.0,37,0.00,,SKC,0.00,VWS V14.01,2013-01-18 22:01:00,
2013-01-18 17:06:00,39.8,15.7,30.30,South,186,12.0,16.0,37,0.00,,SKC,0.00,VWS V14.01,2013-01-18 22:06:00,
2013-01-18 17:11:00,39.6,15.5,30.30,SSW,194,4.0,18.0,37,0.00,,SKC,0.00,VWS V14.01,2013-01-18 22:11:00,
2013-01-18 17:16:00,39.5,15.4,30.29,SSE,150,2.0,19.0,37,0.00,,SKC,0.00,VWS V14.01,2013-01-18 22:16:00,
2013-01-18 17:22:00,39.5,15.4,30.29,SSW,200,5.0,19.0,37,0.00,,SKC,0.00,VWS V14.01,2013-01-18 22:22:00,
2013-01-18 17:27:00,39.3,15.8,30.29,SSE,167,5.0,19.0,38,0.00,,SKC,0.00,VWS V14.01,2013-01-18 22:27:00,
2013-01-18 17:32:00,39.3,15.8,30.29,South,182,7.0,7.0,38,0.00,,SKC,0.00,VWS V14.01,2013-01-18 22:32:00,
2013-01-18 17:37:00,38.7,18.7,30.29,SSE,159,7.0,7.0,44,0.00,,SKC,0.00,VWS V14.01,2013-01-18 22:37:00,
2013-01-18 17:42:00,38.5,19.0,30.29,SE,129,5.0,10.0,45,0.00,,SKC,0.00,VWS V14.01,2013-01-18 22:42:00,
2013-01-18 17:47:00,38.3,18.8,30.28,SSE,160,5.0,10.0,45,0.00,,SKC,0.00,VWS V14.01,2013-01-18 22:47:00,
2013-01-18 17:52:00,38.1,19.2,30.28,SSE,149,5.0,10.0,46,0.00,,SKC,0.00,VWS V14.01,2013-01-18 22:52:00,
2013-01-18 17:57:00,38.0,18.6,30.28,SE,142,6.0,13.0,45,0.00,,SKC,0.00,VWS V14.01,2013-01-18 22:57:00,
2013-01-18 18:02:00,38.0,18.6,30.28,SE,142,3.0,5.0,45,0.00,,SKC,0.00,VWS V14.01,2013-01-18 23:02:00,
2013-01-18 18:07:00,37.9,19.5,30.28,SW,219,3.0,6.0,47,0.00,,SKC,0.00,VWS V14.01,2013-01-18 23:07:00,
2013-01-18 18:12:00,37.7,18.8,30.28,WSW,256,2.0,6.0,46,0.00,,SKC,0.00,VWS V14.01,2013-01-18 23:12:00,
2013-01-18 18:17:00,37.7,19.8,30.29,SSE,150,0.0,7.0,48,0.00,,SKC,0.00,VWS V14.01,2013-01-18 23:17:00,
2013-01-18 18:22:00,37.6,19.7,30.29,SSE,162,3.0,7.0,48,0.00,,SKC,0.00,VWS V14.01,2013-01-18 23:22:00,
2013-01-18 18:27:00,37.5,19.6,30.29,SSE,152,3.0,7.0,48,0.00,,SKC,0.00,VWS V14.01,2013-01-18 23:27:00,
2013-01-18 18:32:00,37.5,19.6,30.28,SE,139,5.0,9.0,48,0.00,,SKC,0.00,VWS V14.01,2013-01-18 23:32:00,
2013-01-18 18:38:00,37.5,20.1,30.28,SE,131,2.0,11.0,49,0.00,,SKC,0.00,VWS V14.01,2013-01-18 23:38:00,
2013-01-18 18:43:00,37.4,20.0,30.28,SSE,158,4.0,11.0,49,0.00,,SKC,0.00,VWS V14.01,2013-01-18 23:43:00,
2013-01-18 18:48:00,37.3,20.4,30.28,SSE,157,3.0,11.0,50,0.00,,SKC,0.00,VWS V14.01,2013-01-18 23:48:00,
2013-01-18 18:53:00,37.3,20.4,30.28,SSW,194,3.0,11.0,50,0.00,,SKC,0.00,VWS V14.01,2013-01-18 23:53:00,
2013-01-18 18:58:00,37.3,20.9,30.28,SSE,159,3.0,11.0,51,0.00,,SKC,0.00,VWS V14.01,2013-01-18 23:58:00,
2013-01-18 19:03:00,37.2,20.8,30.27,South,186,11.0,11.0,51,0.00,,SKC,0.00,VWS V14.01,2013-01-19 00:03:00,
2013-01-18 19:08:00,37.3,20.9,30.27,SE,127,1.0,11.0,51,0.00,,SKC,0.00,VWS V14.01,2013-01-19 00:08:00,
2013-01-18 19:13:00,37.3,20.9,30.27,SW,236,2.0,11.0,51,0.00,,SKC,0.00,VWS V14.01,2013-01-19 00:13:00,
2013-01-18 19:18:00,37.2,20.8,30.27,SSE,148,2.0,11.0,51,0.00,,SKC,0.00,VWS V14.01,2013-01-19 00:18:00,
2013-01-18 19:23:00,37.2,21.2,30.27,SSE,158,3.0,11.0,52,0.00,,SKC,0.00,VWS V14.01,2013-01-19 00:23:00,
2013-01-18 19:28:00,37.2,21.2,30.27,SSW,203,4.0,11.0,52,0.00,,SKC,0.00,VWS V14.01,2013-01-19 00:28:00,
2013-01-18 19:33:00,37.0,21.5,30.27,SSE,149,7.0,7.0,53,0.00,,SKC,0.00,VWS V14.01,2013-01-19 00:33:00,
2013-01-18 19:38:00,36.8,21.7,30.27,SSE,148,3.0,10.0,54,0.00,,SKC,0.00,VWS V14.01,2013-01-19 00:38:00,
2013-01-18 19:44:00,36.8,21.7,30.27,SSE,147,3.0,10.0,54,0.00,,SKC,0.00,VWS V14.01,2013-01-19 00:44:00,
2013-01-18 19:49:00,36.6,22.0,30.27,SE,134,10.0,10.0,55,0.00,,SKC,0.00,VWS V14.01,2013-01-19 00:49:00,
2013-01-18 19:54:00,36.7,22.1,30.27,SE,141,5.0,11.0,55,0.00,,SKC,0.00,VWS V14.01,2013-01-19 00:54:00,
2013-01-18 19:59:00,36.6,22.0,30.27,SSE,150,5.0,11.0,55,0.00,,SKC,0.00,VWS V14.01,2013-01-19 00:59:00,
2013-01-18 20:04:00,36.5,22.3,30.26,SSE,149,5.0,9.0,56,0.00,,SKC,0.00,VWS V14.01,2013-01-19 01:04:00,
2013-01-18 20:09:00,36.5,22.3,30.26,SSE,152,6.0,9.0,56,0.00,,SKC,0.00,VWS V14.01,2013-01-19 01:09:00,
2013-01-18 20:14:00,36.5,22.3,30.26,SSE,155,3.0,10.0,56,0.00,,SKC,0.00,VWS V14.01,2013-01-19 01:14:00,
2013-01-18 20:19:00,36.4,22.6,30.25,SSE,156,11.0,11.0,57,0.00,,SKC,0.00,VWS V14.01,2013-01-19 01:19:00,
2013-01-18 20:24:00,36.4,22.6,30.25,SSE,163,4.0,11.0,57,0.00,,SKC,0.00,VWS V14.01,2013-01-19 01:24:00,
2013-01-18 20:29:00,36.4,22.6,30.25,ESE,122,2.0,11.0,57,0.00,,SKC,0.00,VWS V14.01,2013-01-19 01:29:00,
2013-01-18 20:34:00,36.4,22.6,30.25,SSE,148,3.0,9.0,57,0.00,,SKC,0.00,VWS V14.01,2013-01-19 01:34:00,
2013-01-18 20:39:00,36.4,23.0,30.25,SSE,148,6.0,9.0,58,0.00,,SKC,0.00,VWS V14.01,2013-01-19 01:39:00,
2013-01-18 20:44:00,36.4,23.0,30.25,SSE,168,4.0,9.0,58,0.00,,SKC,0.00,VWS V14.01,2013-01-19 01:44:00,
2013-01-18 20:49:00,36.3,23.0,30.24,SSE,157,2.0,9.0,58,0.00,,SKC,0.00,VWS V14.01,2013-01-19 01:49:00,
2013-01-18 20:54:00,36.3,23.0,30.24,SE,145,7.0,9.0,58,0.00,,SKC,0.00,VWS V14.01,2013-01-19 01:54:00,
2013-01-18 20:59:00,36.3,23.4,30.24,SSE,153,8.0,9.0,59,0.00,,SKC,0.00,VWS V14.01,2013-01-19 01:59:00,
2013-01-18 21:04:00,36.3,23.4,30.24,SSE,150,6.0,6.0,59,0.00,,SKC,0.00,VWS V14.01,2013-01-19 02:04:00,
2013-01-18 21:10:00,36.4,23.0,30.24,SE,135,3.0,10.0,58,0.00,,SKC,0.00,VWS V14.01,2013-01-19 02:10:00,
2013-01-18 21:15:00,36.6,23.2,30.22,SE,129,2.0,10.0,58,0.00,,SKC,0.00,VWS V14.01,2013-01-19 02:15:00,
2013-01-18 21:20:00,36.7,23.3,30.22,ESE,118,3.0,10.0,58,0.00,,SKC,0.00,VWS V14.01,2013-01-19 02:20:00,
2013-01-18 21:25:00,36.8,23.0,30.22,SE,142,5.0,10.0,57,0.00,,SKC,0.00,VWS V14.01,2013-01-19 02:25:00,
2013-01-18 21:30:00,36.9,23.1,30.22,SE,141,6.0,10.0,57,0.00,,SKC,0.00,VWS V14.01,2013-01-19 02:30:00,
2013-01-18 21:35:00,37.0,23.2,30.22,SSE,166,3.0,10.0,57,0.00,,SKC,0.00,VWS V14.01,2013-01-19 02:35:00,
2013-01-18 21:40:00,37.1,23.3,30.22,SE,132,4.0,10.0,57,0.00,,SKC,0.00,VWS V14.01,2013-01-19 02:40:00,
2013-01-18 21:45:00,37.2,23.4,30.21,SSE,153,3.0,11.0,57,0.00,,SKC,0.00,VWS V14.01,2013-01-19 02:45:00,
2013-01-18 21:50:00,37.2,23.4,30.21,SE,145,5.0,11.0,57,0.00,,SKC,0.00,VWS V14.01,2013-01-19 02:50:00,
2013-01-18 21:55:00,37.3,23.5,30.21,SSE,155,4.0,11.0,57,0.00,,SKC,0.00,VWS V14.01,2013-01-19 02:55:00,
2013-01-18 22:00:00,37.3,23.5,30.20,SSW,198,4.0,11.0,57,0.00,,SKC,0.00,VWS V14.01,2013-01-19 03:00:00,
2013-01-18 22:05:00,37.2,23.4,30.20,SSW,205,2.0,4.0,57,0.00,,SKC,0.00,VWS V14.01,2013-01-19 03:05:00,
2013-01-18 22:10:00,37.2,23.4,30.20,SSW,205,2.0,4.0,57,0.00,,SKC,0.00,VWS V14.01,2013-01-19 03:10:00,
2013-01-18 22:15:00,37.2,23.4,30.20,SSW,205,2.0,4.0,57,0.00,,SKC,0.00,VWS V14.01,2013-01-19 03:15:00,
2013-01-18 22:21:00,37.2,23.4,30.20,SSW,205,2.0,4.0,57,0.00,,SKC,0.00,VWS V14.01,2013-01-19 03:21:00,
2013-01-18 22:26:00,37.2,23.4,30.20,SSW,205,2.0,4.0,57,0.00,,SKC,0.00,VWS V14.01,2013-01-19 03:26:00,
2013-01-18 22:31:00,37.7,23.9,30.19,SE,146,2.0,2.0,57,0.00,,SKC,0.00,VWS V14.01,2013-01-19 03:31:00,
2013-01-18 22:36:00,37.7,23.9,30.19,South,172,2.0,9.0,57,0.00,,SKC,0.00,VWS V14.01,2013-01-19 03:36:00,
2013-01-18 22:41:00,37.8,23.5,30.19,SSE,156,4.0,9.0,56,0.00,,SKC,0.00,VWS V14.01,2013-01-19 03:41:00,
2013-01-18 22:46:00,37.8,24.0,30.18,SSE,159,9.0,9.0,57,0.00,,SKC,0.00,VWS V14.01,2013-01-19 03:46:00,
2013-01-18 22:51:00,38.0,24.1,30.18,ENE,75,3.0,10.0,57,0.00,,SKC,0.00,VWS V14.01,2013-01-19 03:51:00,
2013-01-18 22:56:00,38.1,23.8,30.18,SE,142,4.0,10.0,56,0.00,,SKC,0.00,VWS V14.01,2013-01-19 03:56:00,
2013-01-18 23:01:00,38.2,23.9,30.18,ESE,122,3.0,4.0,56,0.00,,SKC,0.00,VWS V14.01,2013-01-19 04:01:00,
2013-01-18 23:06:00,38.3,24.0,30.18,SSE,158,3.0,14.0,56,0.00,,SKC,0.00,VWS V14.01,2013-01-19 04:06:00,
2013-01-18 23:11:00,38.4,24.1,30.18,South,183,4.0,14.0,56,0.00,,SKC,0.00,VWS V14.01,2013-01-19 04:11:00,
2013-01-18 23:16:00,38.4,24.1,30.17,SE,142,3.0,14.0,56,0.00,,SKC,0.00,VWS V14.01,2013-01-19 04:16:00,
2013-01-18 23:21:00,38.4,24.1,30.17,SE,124,6.0,14.0,56,0.00,,SKC,0.00,VWS V14.01,2013-01-19 04:21:00,
2013-01-18 23:26:00,38.4,24.1,30.17,SE,136,6.0,14.0,56,0.00,,SKC,0.00,VWS V14.01,2013-01-19 04:26:00,
2013-01-18 23:32:00,38.3,24.4,30.17,SSE,159,4.0,6.0,57,0.00,,SKC,0.00,VWS V14.01,2013-01-19 04:32:00,
2013-01-18 23:37:00,38.4,24.1,30.17,SSE,150,4.0,9.0,56,0.00,,SKC,0.00,VWS V14.01,2013-01-19 04:37:00,
2013-01-18 23:42:00,38.4,24.5,30.17,SSW,204,4.0,9.0,57,0.00,,SKC,0.00,VWS V14.01,2013-01-19 04:42:00,
2013-01-18 23:47:00,38.3,24.4,30.17,SE,141,4.0,9.0,57,0.00,,SKC,0.00,VWS V14.01,2013-01-19 04:47:00,
2013-01-18 23:52:00,38.3,24.0,30.17,SSE,159,7.0,11.0,56,0.00,,SKC,0.00,VWS V14.01,2013-01-19 04:52:00,
2013-01-18 23:57:00,38.5,24.2,30.17,SE,129,2.0,11.0,56,0.00,,SKC,0.00,VWS V14.01,2013-01-19 04:57:00,